Location: Bon Acre
(42.6442°N, 73.5758°W)
Time: 16:35:58
(UTC+00:00)

Cosmos 2360 Rocket - Pass Details

Date: 14 December 2025
Orbit: 835 x 842 km, 71.0° (Epoch: 22 January)

Event Time Altitude Azimuth Distance (km) Brightness Sun altitude
Rises 22:58:45 0° 158° (SSE) 3,381 5.3 -17.2°
Reaches altitude 10° 23:01:56 10° 140° (SE) 2,451 4.4 -17.7°
Enters shadow 23:03:32 15° 125° (SE) 2,122 3.9 -18.0°
